User: anonymous
Location: Vancouver
(49.2500°N, 123.1330°W)
Time: 19:56:25
(UTC-07:00)
Language:

Cosmos 1864 Rocket - Orbit

View from above orbital plane
View from above orbital plane
View from above satellite
View from above satellite

Ground track
Ground track

The orbit data is extracted from the following two-line orbital elements,

1 18161U 87057B   14210.78715552  .00000036  00000-0  20772-4 0  5258
2 18161 082.9363 135.7680 0031677 023.9552 005.0033 13.76854272339269
Epoch (UTC): 29 July 2014 18:53:30
Eccentricity: 0.0031677
inclination: 82.9363°
perigee height: 952 km
apogee height: 998 km
right ascension of ascending node: 135.7680°
argument of perigee: 23.9552°
revolutions per day: 13.76854272
mean anomaly at epoch: 5.0033°
orbit number at epoch: 33926

The dashed part of the orbit path shows where the satellite is in the earth's shadow,  

DLR